This demonstration page uses our WeatherBlox Daily Observations layout. Learn more.

40.92945, -100.16068

Hourly Observations for June 30, 2018

Temp ( °F °C ) Dew Point ( °F °C ) Humidity (%) Winds ( mph kmh ) Pressure ( in mb ) Visibility ( mi km ) Precip ( " mm )
12:15 am 00:15 Clear 82 28 62 16.9 51 51 S 20 31 29.62 1003 10 16.0934 0 0
12:35 am 00:35 Partly Cloudy with Thunderstorms 81 27.4 56 13.4 42 42 S 28 44 29.62 1003 10 16.0934 0 0
12:55 am 00:55 Partly Cloudy 83 28.3 53 11.4 35 35 SW 26 43 29.59 1002 10 16.0934 0 0
1:15 am 01:15 Partly Cloudy 85 29.2 51 10.6 31 31 SSW 21 33 29.59 1002 10 16.0934 0 0
1:35 am 01:35 Partly Cloudy 84 29 51 10.3 31 31 SSW 23 37 29.59 1002 10 16.0934 0 0
1:55 am 01:55 Partly Cloudy 84 28.8 50 9.9 31 31 S 14 22 29.62 1003 10 16.0934 0 0
2:15 am 02:15 Clear 84 28.9 57 13.7 39 39 NNE 23 37 29.59 1002 10 16.0934 0 0
2:35 am 02:35 Clear 75 24.1 66 19 73 73 N 21 33 29.65 1004 10 16.0934 0 0
2:55 am 02:55 Clear 74 23.5 66 18.7 75 75 NNE 16 26 29.71 1006 10 16.0934 0 0
3:15 am 03:15 Clear 73 23 63 17.4 71 71 NE 12 19 29.77 1008 10 16.0934 0 0
3:35 am 03:35 Clear 72 22.1 63 17 73 73 NE 8 13 29.83 1010 10 16.0934 0 0
3:55 am 03:55 Clear 71 21.8 63 17.1 75 75 NE 16 26 29.77 1008 10 16.0934 0 0
4:15 am 04:15 Clear 71 21.5 63 17 76 76 N 10 17 29.8 1009 10 16.0934 0 0
4:35 am 04:35 Mostly Cloudy with Light Rain 70 21 63 17 78 78 NE 5 7 29.8 1009 10 16.0934 0 0
4:55 am 04:55 Cloudy 69 20.5 63 17.3 82 82 NW 6 9 29.85 1011 2.5 4.02335 0 0
5:15 am 05:15 Cloudy 68 20 64 17.7 87 87 WSW 3 6 29.85 1011 7 11.26538 0.06 1.524
5:35 am 05:35 Cloudy with Thunderstorms 67 19.7 65 18.1 91 91 ENE 13 20 29.83 1010 10 16.0934 0.08 2.032
5:55 am 05:55 Cloudy with Heavy Rain 68 20 64 18 88 88 N 5 7 29.83 1010 5 8.0467 0.18 4.572
6:15 am 06:15 Cloudy with Light Rain 68 20 65 18.2 89 89 ENE 20 31 29.8 1009 10 16.0934 0.01 0.254
6:35 am 06:35 Cloudy with Light Rain 68 19.8 66 18.7 93 93 SE 6 9 29.83 1010 10 16.0934 0.02 0.508
6:55 am 06:55 Cloudy 69 20.5 67 19.2 92 92 NE 9 15 29.8 1009 10 16.0934 0.02 0.508
7:15 am 07:15 Mostly Cloudy 69 20.6 67 19.2 92 92 N 9 15 29.83 1010 10 16.0934 0 0
7:35 am 07:35 Partly Cloudy 69 20.5 66 19.1 92 92 N 7 11 29.83 1010 10 16.0934 0 0
7:55 am 07:55 Partly Cloudy with Light Drizzle 69 20.8 66 19.1 90 90 NE 9 15 29.83 1010 10 16.0934 0 0
8:15 am 08:15 Partly Cloudy 70 20.9 67 19.2 90 90 E 9 15 29.83 1010 10 16.0934 0 0
8:35 am 08:35 Sunny 70 21 67 19.3 90 90 NE 7 11 29.83 1010 10 16.0934 0 0
8:55 am 08:55 Sunny 70 21.2 66 19.1 88 88 NE 6 9 29.83 1010 10 16.0934 0 0
9:15 am 09:15 Sunny 72 22.4 68 19.8 85 85 NE 8 13 29.83 1010 10 16.0934 0 0
9:35 am 09:35 Sunny 73 22.5 67 19.2 82 82 NE 8 13 29.8 1009 10 16.0934 0 0
9:55 am 09:55 Sunny 75 23.8 68 19.8 78 78 ENE 10 17 29.8 1009 10 16.0934 0 0
10:15 am 10:15 Partly Cloudy 74 23.5 67 19.6 79 79 ENE 13 20 29.8 1009 10 16.0934 0 0
10:35 am 10:35 Partly Cloudy 74 23.5 68 19.9 80 80 NE 10 17 29.8 1009 10 16.0934 0 0
10:55 am 10:55 Sunny 74 23.5 67 19.2 77 77 ENE 13 20 29.8 1009 10 16.0934 0 0
11:15 am 11:15 Sunny 75 24.1 67 19.7 77 77 E 10 17 29.8 1009 10 16.0934 0 0
11:35 am 11:35 Mostly Cloudy 77 24.8 67 19.3 72 72 ENE 14 22 29.8 1009 10 16.0934 0 0
11:55 am 11:55 Partly Cloudy 78 25.3 66 18.9 68 68 E 20 31 29.8 1009 10 16.0934 0 0
12:15 pm 12:15 Sunny 78 25.3 67 19.3 69 69 E 17 28 29.8 1009 10 16.0934 0 0
12:35 pm 12:35 Sunny 78 25.6 67 19.4 69 69 E 17 28 29.8 1009 10 16.0934 0 0
12:55 pm 12:55 Partly Cloudy 78 25.8 67 19.7 69 69 ENE 15 24 29.8 1009 10 16.0934 0 0
1:15 pm 13:15 Mostly Cloudy 79 25.9 67 19.4 67 67 NE 17 28 29.8 1009 10 16.0934 0 0
1:35 pm 13:35 Mostly Cloudy 80 26.5 68 19.8 67 67 ENE 16 26 29.77 1008 10 16.0934 0 0
1:55 pm 13:55 Cloudy 78 25.7 67 19.4 68 68 ENE 15 24 29.83 1010 10 16.0934 0 0
2:15 pm 14:15 Cloudy 78 25.7 67 19.6 69 69 ENE 17 28 29.8 1009 10 16.0934 0 0
2:35 pm 14:35 Cloudy 78 25.4 67 19.3 69 69 NE 12 19 29.8 1009 10 16.0934 0 0
2:55 pm 14:55 Cloudy with Nearby Thunderstorms 76 24.5 67 19.3 73 73 NE 16 26 29.8 1009 10 16.0934 0 0
3:15 pm 15:15 Mostly Cloudy with Nearby Thunderstorms 75 24 67 19.2 75 75 NE 10 17 29.8 1009 10 16.0934 0 0
3:35 pm 15:35 Mostly Cloudy with Nearby Thunderstorms 74 23.6 66 19 75 75 ENE 10 17 29.83 1010 10 16.0934 0 0
3:55 pm 15:55 Cloudy 74 23.4 66 18.7 75 75 ENE 14 22 29.83 1010 10 16.0934 0 0
4:15 pm 16:15 Cloudy 73 22.6 64 17.9 75 75 NE 9 15 29.8 1009 10 16.0934 0 0
4:35 pm 16:35 Mostly Cloudy 72 22.2 64 17.5 75 75 ENE 8 13 29.83 1010 10 16.0934 0 0
4:55 pm 16:55 Mostly Cloudy with Light Rain 72 22.3 64 17.5 74 74 NE 7 11 29.83 1010 10 16.0934 0 0
5:15 pm 17:15 Cloudy with Light Rain 71 21.6 64 17.7 79 79 ENE 9 15 29.83 1010 10 16.0934 0.01 0.254
5:35 pm 17:35 Mostly Cloudy 71 21.8 64 17.5 77 77 NE 8 13 29.83 1010 10 16.0934 0.01 0.254
5:55 pm 17:55 Mostly Cloudy 71 21.9 64 17.5 76 76 NE 10 17 29.83 1010 10 16.0934 0.01 0.254
6:15 pm 18:15 Mostly Cloudy 72 22 63 17.4 75 75 NE 9 15 29.8 1009 10 16.0934 0 0
6:35 pm 18:35 Cloudy with Light Rain 73 22.6 65 18.3 77 77 NE 12 19 29.74 1007 10 16.0934 0 0
7:15 pm 19:15 Hazy 74 23.3 64 18 72 72 NE 16 26 29.71 1006 3 4.82802 0 0
7:35 pm 19:35 Sunny 73 23 64 17.7 72 72 ENE 13 20 29.71 1006 10 16.0934 0 0
7:55 pm 19:55 Sunny 73 22.7 64 17.5 73 73 ENE 13 20 29.68 1005 10 16.0934 0 0
8:15 pm 20:15 Sunny 72 22 63 17 73 73 NE 9 15 29.71 1006 10 16.0934 0 0
8:35 pm 20:35 Mostly Cloudy with Nearby Thunderstorms 71 21.8 63 17.1 75 75 NE 8 13 29.77 1008 10 16.0934 0 0
8:55 pm 20:55 Cloudy with Light Rain 71 21.9 62 16.8 73 73 E 9 15 29.71 1006 10 16.0934 0 0
9:15 pm 21:15 Cloudy 69 20.7 63 17.3 81 81 NW 29 46 29.85 1011 4 6.43736 0.15 3.81
9:35 pm 21:35 Mostly Clear with Nearby Thunderstorms 64 17.5 62 16.4 93 93 NNW 16 26 29.85 1011 N/A 1.25 31.75
9:55 pm 21:55 Cloudy with Light Rain 63 17 61 16 94 94 NW 14 22 29.85 1011 10 16.0934 1.29 32.766
10:15 pm 22:15 Cloudy 63 17.2 61 16.2 94 94 NW 18 30 29.85 1011 10 16.0934 0 0
10:35 pm 22:35 Cloudy with Light Rain 63 17.2 61 16.1 93 93 NW 29 46 29.88 1012 10 16.0934 0 0
10:55 pm 22:55 Cloudy 62 16.9 60 15.3 90 90 NNW 30 48 29.97 1015 10 16.0934 0 0
11:15 pm 23:15 Cloudy with Light Rain 61 16 57 14 88 88 N 21 33 29.97 1015 10 16.0934 0 0
11:35 pm 23:35 Cloudy with Light Rain 60 15.8 58 14.2 90 90 N 21 33 29.97 1015 10 16.0934 0.01 0.254
11:55 pm 23:55 Cloudy with Light Rain 60 15.5 57 14 91 91 N 17 28 30 1016 10 16.0934 0.02 0.508

Powered by AerisWeather